Powrót do katalogu

COSMOS 1656

AktywnyMilitariaLEO
NORAD 15755·PAYLOAD·🇷🇺 Russia

Wystrzelony May 30, 1985 z Baikonur Cosmodrome

Loading…

Następne Przeloty (najbliższe 24 godziny)

TLE

ŚwieżeSource: Space-Track

Epoka: Sep 14, 2026, 22:24 UTC

1 15755U 85042A   26257.93381796  .00000089  00000-0  62774-4 0  9997
2 15755  71.1099  86.8581 0036057 207.9232 151.9961 14.21019190139917

Śledź COSMOS 1656 w czasie rzeczywistym z AllMySat

Download on the App Store